USA 169 (MILSTAR-2 4)

Last updated on Mon Sep 07 2026 00:02:56 GMT+0000 (Coordinated Universal Time)

1 27711U 03012A 26249.19420049 -.00000206 00000+0 00000+0 0 9993 2 27711 12.4580 28.3058 0096323 11.8980 167.1842 1.00277737 33768
UTC large
Height (km)
Speed (km/s)
/
Latitude / Longitude
Inclination (degrees)
Orbital Period (minutes)
Azimuth
Elevation
Range (km)
Doppler Factor

Next 0 passes for location: London (51.5072 / 0.1276)

No passes found over London.
USA 169 (MILSTAR-2 4)